When you browse on this site, cookies collect data to enhance your experience and personalize the content and advertising you see.
Visit our Privacy Policy to learn more. By continuing to use the site, you agree to this use of cookies and data.
  • In Schweiz
  • Länderverzeichnis
  • Für 7 Tage
  • Wassertemperatur
  • Wetterkarte
  • Widgets
  • user-avatar
    Anmelden

    Stündliche Wetter Toporovo

    Heute, 17 August, Samstag

    Zeit Temperatur Niederschläge Wind Luftdruck Luftfeuchtigkeit
    00:00 +13°C° 0 mm 2 m/S 740 mmHg 80%
    01:00 +13°C° 0 mm 2 m/S 741 mmHg 79%
    02:00 +14°C° 0 mm 2 m/S 741 mmHg 79%
    03:00 +12°C° 0.2 mm 3 m/S 740 mmHg 83%
    04:00 +12°C° 0.2 mm 3 m/S 740 mmHg 87%
    05:00 +12°C° 0.2 mm 3 m/S 740 mmHg 90%
    06:00 +12°C° 0.1 mm 3 m/S 740 mmHg 89%
    07:00 +13°C° 0.1 mm 3 m/S 740 mmHg 87%
    08:00 +13°C° 0.1 mm 4 m/S 740 mmHg 85%
    09:00 +13°C° 0.1 mm 4 m/S 740 mmHg 85%
    10:00 +14°C° 0.1 mm 4 m/S 740 mmHg 86%
    11:00 +14°C° 0.1 mm 4 m/S 740 mmHg 86%
    12:00 +14°C° 0.5 mm 4 m/S 740 mmHg 87%
    13:00 +14°C° 0.5 mm 4 m/S 740 mmHg 88%
    14:00 +14°C° 0.5 mm 4 m/S 740 mmHg 89%
    15:00 +14°C° 0.7 mm 3 m/S 739 mmHg 90%
    16:00 +14°C° 0.7 mm 3 m/S 739 mmHg 91%
    17:00 +14°C° 0.7 mm 3 m/S 739 mmHg 92%
    18:00 +14°C° 1 mm 3 m/S 739 mmHg 93%
    19:00 +14°C° 1 mm 3 m/S 738 mmHg 93%
    20:00 +13°C° 1 mm 3 m/S 738 mmHg 94%
    21:00 +13°C° 1.1 mm 3 m/S 738 mmHg 95%
    22:00 +13°C° 1.1 mm 3 m/S 738 mmHg 96%
    23:00 +13°C° 1.1 mm 3 m/S 738 mmHg 97%

    Morgen, 18 August, Sonntag

    Zeit Temperatur Niederschläge Wind Luftdruck Luftfeuchtigkeit
    00:00 +13°C° 0.8 mm 3 m/S 737 mmHg 97%
    01:00 +13°C° 0.8 mm 3 m/S 737 mmHg 96%
    02:00 +13°C° 0.8 mm 3 m/S 737 mmHg 96%
    03:00 +12°C° 0 mm 3 m/S 737 mmHg 96%
    04:00 +12°C° 0 mm 3 m/S 737 mmHg 97%
    05:00 +12°C° 0 mm 3 m/S 737 mmHg 97%
    06:00 +12°C° 0 mm 3 m/S 737 mmHg 95%
    07:00 +13°C° 0 mm 3 m/S 737 mmHg 93%
    08:00 +14°C° 0 mm 3 m/S 737 mmHg 91%
    09:00 +17°C° 0 mm 3 m/S 738 mmHg 83%
    10:00 +18°C° 0 mm 3 m/S 738 mmHg 75%
    11:00 +20°C° 0 mm 3 m/S 738 mmHg 67%
    12:00 +21°C° 0 mm 3 m/S 738 mmHg 64%
    13:00 +22°C° 0 mm 3 m/S 738 mmHg 62%
    14:00 +22°C° 0 mm 3 m/S 739 mmHg 59%
    15:00 +22°C° 0 mm 3 m/S 739 mmHg 63%
    16:00 +21°C° 0 mm 2 m/S 739 mmHg 67%
    17:00 +21°C° 0 mm 2 m/S 739 mmHg 70%
    18:00 +19°C° 0 mm 2 m/S 740 mmHg 76%
    19:00 +17°C° 0 mm 2 m/S 740 mmHg 81%
    20:00 +15°C° 0 mm 1 m/S 740 mmHg 87%
    21:00 +15°C° 0 mm 1 m/S 740 mmHg 89%
    22:00 +14°C° 0 mm 1 m/S 740 mmHg 90%
    23:00 +13°C° 0 mm 1 m/S 741 mmHg 92%

    übermorgen, 19 August, Montag

    Zeit Temperatur Niederschläge Wind Luftdruck Luftfeuchtigkeit
    00:00 +13°C° 0 mm 1 m/S 741 mmHg 92%
    01:00 +13°C° 0 mm 1 m/S 741 mmHg 93%
    02:00 +13°C° 0 mm 1 m/S 741 mmHg 93%
    03:00 +13°C° 0 mm 1 m/S 741 mmHg 93%
    04:00 +13°C° 0 mm 2 m/S 741 mmHg 92%
    05:00 +13°C° 0 mm 2 m/S 742 mmHg 91%
    06:00 +14°C° 0 mm 2 m/S 742 mmHg 86%
    07:00 +16°C° 0 mm 2 m/S 742 mmHg 81%
    08:00 +18°C° 0 mm 3 m/S 743 mmHg 76%
    09:00 +20°C° 0 mm 3 m/S 743 mmHg 72%
    10:00 +21°C° 0 mm 4 m/S 743 mmHg 68%
    11:00 +23°C° 0 mm 4 m/S 743 mmHg 65%
    12:00 +23°C° 0 mm 4 m/S 743 mmHg 63%
    13:00 +25°C° 0 mm 4 m/S 743 mmHg 62%
    14:00 +26°C° 0 mm 4 m/S 743 mmHg 61%
    15:00 +25°C° 0 mm 4 m/S 743 mmHg 65%
    16:00 +25°C° 0 mm 3 m/S 743 mmHg 69%
    17:00 +24°C° 0 mm 3 m/S 743 mmHg 73%
    18:00 +22°C° 0 mm 3 m/S 743 mmHg 78%
    19:00 +21°C° 0 mm 3 m/S 743 mmHg 83%
    20:00 +19°C° 0 mm 3 m/S 743 mmHg 88%
    21:00 +19°C° 0 mm 3 m/S 744 mmHg 87%
    22:00 +18°C° 0 mm 3 m/S 744 mmHg 87%
    23:00 +18°C° 0 mm 3 m/S 744 mmHg 87%

    20 August, Dienstag

    Zeit Temperatur Niederschläge Wind Luftdruck Luftfeuchtigkeit
    00:00 +17°C° 0.1 mm 3 m/S 744 mmHg 89%
    01:00 +17°C° 0.1 mm 2 m/S 744 mmHg 91%
    02:00 +16°C° 0.1 mm 2 m/S 744 mmHg 93%
    03:00 +16°C° 0.2 mm 2 m/S 744 mmHg 94%
    04:00 +16°C° 0.2 mm 2 m/S 744 mmHg 94%
    05:00 +15°C° 0.2 mm 2 m/S 744 mmHg 95%
    06:00 +16°C° 0 mm 2 m/S 744 mmHg 91%
    07:00 +18°C° 0 mm 2 m/S 744 mmHg 88%
    08:00 +19°C° 0 mm 3 m/S 745 mmHg 85%
    09:00 +21°C° 0 mm 3 m/S 745 mmHg 80%
    10:00 +22°C° 0 mm 3 m/S 745 mmHg 75%
    11:00 +25°C° 0 mm 3 m/S 745 mmHg 71%
    12:00 +26°C° 0.1 mm 3 m/S 745 mmHg 71%
    13:00 +26°C° 0.1 mm 3 m/S 745 mmHg 71%
    14:00 +27°C° 0.1 mm 3 m/S 745 mmHg 71%
    15:00 +26°C° 0.4 mm 3 m/S 745 mmHg 75%
    16:00 +25°C° 0.4 mm 3 m/S 745 mmHg 80%
    17:00 +24°C° 0.4 mm 2 m/S 745 mmHg 85%
    18:00 +23°C° 0.2 mm 2 m/S 745 mmHg 88%
    19:00 +21°C° 0.2 mm 2 m/S 745 mmHg 91%
    20:00 +20°C° 0.2 mm 2 m/S 745 mmHg 94%
    21:00 +20°C° 0 mm 2 m/S 745 mmHg 95%
    22:00 +20°C° 0 mm 1 m/S 745 mmHg 96%
    23:00 +20°C° 0 mm 1 m/S 745 mmHg 96%

    21 August, Mittwoch

    Zeit Temperatur Niederschläge Wind Luftdruck Luftfeuchtigkeit
    00:00 +19°C° 0 mm 1 m/S 745 mmHg 96%
    01:00 +19°C° 0 mm 1 m/S 745 mmHg 96%
    02:00 +19°C° 0 mm 1 m/S 745 mmHg 97%
    03:00 +19°C° 0 mm 1 m/S 745 mmHg 97%
    04:00 +19°C° 0 mm 1 m/S 745 mmHg 97%
    05:00 +18°C° 0 mm 1 m/S 745 mmHg 97%
    06:00 +20°C° 0 mm 1 m/S 745 mmHg 94%
    07:00 +21°C° 0 mm 1 m/S 745 mmHg 92%
    08:00 +23°C° 0 mm 1 m/S 745 mmHg 89%
    09:00 +24°C° 0.1 mm 2 m/S 745 mmHg 83%
    10:00 +25°C° 0.1 mm 2 m/S 745 mmHg 78%
    11:00 +27°C° 0.1 mm 3 m/S 745 mmHg 72%
    12:00 +27°C° 0.2 mm 3 m/S 745 mmHg 70%
    13:00 +27°C° 0.2 mm 3 m/S 744 mmHg 68%
    14:00 +28°C° 0.2 mm 3 m/S 744 mmHg 66%
    15:00 +28°C° 0 mm 3 m/S 743 mmHg 69%
    16:00 +27°C° 0 mm 3 m/S 743 mmHg 71%
    17:00 +27°C° 0 mm 2 m/S 743 mmHg 74%
    18:00 +25°C° 0 mm 2 m/S 742 mmHg 79%
    19:00 +24°C° 0 mm 2 m/S 742 mmHg 84%
    20:00 +21°C° 0 mm 2 m/S 742 mmHg 90%
    21:00 +20°C° 0 mm 2 m/S 742 mmHg 90%
    22:00 +20°C° 0 mm 2 m/S 742 mmHg 90%
    23:00 +19°C° 0 mm 2 m/S 741 mmHg 90%

    22 August, Donnerstag

    Zeit Temperatur Niederschläge Wind Luftdruck Luftfeuchtigkeit
    00:00 +18°C° 0 mm 2 m/S 741 mmHg 90%
    01:00 +18°C° 0 mm 2 m/S 741 mmHg 89%
    02:00 +18°C° 0 mm 2 m/S 741 mmHg 88%
    03:00 +17°C° 0 mm 3 m/S 742 mmHg 89%
    04:00 +17°C° 0 mm 4 m/S 742 mmHg 89%
    05:00 +16°C° 0 mm 5 m/S 742 mmHg 90%
    06:00 +15°C° 0 mm 5 m/S 743 mmHg 87%
    07:00 +15°C° 0 mm 5 m/S 744 mmHg 84%
    08:00 +15°C° 0 mm 5 m/S 744 mmHg 81%
    09:00 +16°C° 0 mm 5 m/S 745 mmHg 76%
    10:00 +17°C° 0 mm 5 m/S 745 mmHg 72%
    11:00 +19°C° 0 mm 4 m/S 746 mmHg 68%
    12:00 +20°C° 0 mm 4 m/S 746 mmHg 65%
    13:00 +20°C° 0 mm 4 m/S 746 mmHg 62%
    14:00 +21°C° 0 mm 4 m/S 747 mmHg 59%
    15:00 +21°C° 0 mm 3 m/S 747 mmHg 61%
    16:00 +21°C° 0 mm 2 m/S 747 mmHg 64%
    17:00 +20°C° 0 mm 2 m/S 747 mmHg 66%
    18:00 +19°C° 0 mm 2 m/S 747 mmHg 71%
    19:00 +17°C° 0 mm 2 m/S 747 mmHg 77%
    20:00 +15°C° 0 mm 1 m/S 747 mmHg 82%
    21:00 +14°C° 0 mm 1 m/S 747 mmHg 83%
    22:00 +14°C° 0 mm 1 m/S 747 mmHg 84%
    23:00 +13°C° 0 mm 1 m/S 748 mmHg 85%
    Mehr zeigen